Date String (YYYY-MM-DD hh:mm:ss) UTC,Instrument flags,absolute air pressure of the measurement (hPa),sample flow rate (lpm),inlet stack bypass flow (lpm),air temperature of the measurement (°C),ambient temperature measured by the external sensor (°C),aerosol sample conditioner tube jacket temperature (°C),OPC LED temperature (°C),internal box temperature (°C),relative humidity of the measurement (%),span deviation,mass concentration of particles derived from Lorenz-Mie calculation of OPC scattering (μg/m³),mass concentration of particles derived from Lorenz-Mie calculation of OPC scattering (μg/m³),mass concentration of particles derived from Lorenz-Mie calculation of OPC scattering (μg/m³)
DateTimeUTC,F1_M11,P_M11,Q1_M11,Q2_M11,T1_M11,T2_M11,T3_M11,T4_M11,T5_M11,U1_M11,ZSPAN_M11,X2_M11,X0_M11,X1_M11
2023-07-23 23:00:00,SystemResetWarning,0835.5,4.99,000.00,028.6,024.8,000.0,036.7,030.0,20.2,0000.0,0004.83,0012.97,0004.36
2023-07-23 23:01:00,SystemResetWarning,0835.5,5.01,000.00,028.5,024.7,000.0,036.6,029.9,20.0,0000.0,0004.81,0012.96,0004.36
2023-07-23 23:02:00,SystemResetWarning,0835.5,5.00,000.00,028.4,025.0,000.0,036.7,029.8,20.2,0000.0,0004.79,0012.82,0004.37
2023-07-23 23:03:00,SystemResetWarning,0835.6,4.99,000.00,028.4,025.5,000.0,036.7,029.9,19.9,0000.0,0004.77,0012.85,0004.37
2023-07-23 23:04:00,SystemResetWarning,0835.7,5.00,000.00,028.4,026.0,000.0,036.7,030.0,20.6,0000.0,0004.76,0012.92,0004.36
2023-07-23 23:05:00,SystemResetWarning,0835.7,5.00,000.00,028.5,026.4,000.0,036.8,030.1,21.2,0000.0,0004.72,0012.11,0004.35
2023-07-23 23:06:00,SystemResetWarning,0835.7,5.01,000.00,028.5,026.8,000.0,036.8,030.2,21.2,0000.0,0004.68,0010.64,0004.34
2023-07-23 23:07:00,SystemResetWarning,0835.8,5.01,000.00,028.6,027.1,000.0,036.8,030.3,21.0,0000.0,0004.69,0010.39,0004.35
2023-07-23 23:08:00,SystemResetWarning,0836.0,5.00,000.00,028.6,027.4,000.0,036.9,030.4,21.9,0000.0,0004.74,0010.48,0004.36
2023-07-23 23:09:00,SystemResetWarning,0836.0,4.98,000.00,028.7,026.7,000.0,036.8,030.3,22.0,0000.0,0004.77,0010.07,0004.38
2023-07-23 23:10:00,SystemResetWarning,0836.1,5.00,000.00,028.6,025.0,000.0,036.7,030.1,21.5,0000.0,0004.81,0009.77,0004.39
2023-07-23 23:11:00,SystemResetWarning,0836.1,5.00,000.00,028.5,024.7,000.0,036.6,029.9,20.9,0000.0,0004.82,0009.87,0004.39
2023-07-23 23:12:00,SystemResetWarning,0836.2,5.00,000.00,028.5,025.0,000.0,036.7,029.8,21.7,0000.0,0004.82,0010.31,0004.39
2023-07-23 23:13:00,SystemResetWarning,0836.2,5.00,000.00,028.4,025.4,000.0,036.7,029.9,22.0,0000.0,0004.84,0011.02,0004.38
2023-07-23 23:14:00,SystemResetWarning,0836.2,4.99,000.00,028.4,025.9,000.0,036.8,030.0,21.7,0000.0,0004.85,0012.10,0004.37
2023-07-23 23:15:00,SystemResetWarning,0836.2,5.00,000.00,028.5,026.4,000.0,036.8,030.1,22.7,0000.0,0004.84,0012.67,0004.37
2023-07-23 23:16:00,SystemResetWarning,0836.2,5.00,000.00,028.5,026.8,000.0,036.8,030.2,21.9,0000.0,0004.86,0012.42,0004.38
2023-07-23 23:17:00,SystemResetWarning,0836.2,5.00,000.00,028.6,027.1,000.0,036.8,030.3,21.6,0000.0,0004.88,0012.43,0004.38
2023-07-23 23:18:00,SystemResetWarning,0836.2,5.00,000.00,028.6,027.3,000.0,036.8,030.4,21.0,0000.0,0004.86,0011.94,0004.38
2023-07-23 23:19:00,SystemResetWarning,0836.1,4.98,000.00,028.6,025.9,000.0,036.8,030.2,21.1,0000.0,0004.88,0011.51,0004.39
2023-07-23 23:20:00,SystemResetWarning,0836.1,5.01,000.00,028.6,024.6,000.0,036.7,030.0,23.3,0000.0,0004.91,0011.20,0004.40
2023-07-23 23:21:00,SystemResetWarning,0836.1,5.01,000.00,028.5,024.8,000.0,036.6,029.9,23.5,0000.0,0004.93,0011.24,0004.41
2023-07-23 23:22:00,SystemResetWarning,0836.0,5.00,000.00,028.4,025.1,000.0,036.7,029.8,24.2,0000.0,0004.92,0010.97,0004.43
2023-07-23 23:23:00,SystemResetWarning,0835.9,5.00,000.00,028.4,025.6,000.0,036.7,029.9,24.3,0000.0,0004.95,0010.70,0004.43
2023-07-23 23:24:00,SystemResetWarning,0835.9,5.00,000.00,028.4,026.1,000.0,036.8,030.0,25.4,0000.0,0004.92,0010.71,0004.42
2023-07-23 23:25:00,SystemResetWarning,0835.8,5.00,000.00,028.5,026.5,000.0,036.8,030.1,25.2,0000.0,0004.92,0010.46,0004.44
2023-07-23 23:26:00,SystemResetWarning,0835.8,5.00,000.00,028.5,026.9,000.0,036.8,030.2,25.1,0000.0,0004.92,0009.85,0004.45
2023-07-23 23:27:00,SystemResetWarning,0835.8,4.99,000.00,028.6,027.2,000.0,036.8,030.3,25.6,0000.0,0004.89,0009.79,0004.45
2023-07-23 23:28:00,SystemResetWarning,0835.8,4.99,000.00,028.6,027.4,000.0,036.9,030.4,26.2,0000.0,0004.91,0009.80,0004.46
2023-07-23 23:29:00,SystemResetWarning,0835.6,5.00,000.00,028.6,026.2,000.0,036.8,030.3,26.3,0000.0,0004.94,0009.85,0004.47
2023-07-23 23:30:00,SystemResetWarning,0835.5,4.99,000.00,028.6,024.7,000.0,036.7,030.0,26.2,0000.0,0004.94,0009.90,0004.47
2023-07-23 23:31:00,SystemResetWarning,0835.5,5.00,000.00,028.5,024.7,000.0,036.7,029.9,25.7,0000.0,0004.88,0010.00,0004.46
2023-07-23 23:32:00,SystemResetWarning,0835.5,5.01,000.00,028.4,025.0,000.0,036.7,029.8,24.9,0000.0,0004.83,0009.89,0004.44
2023-07-23 23:33:00,SystemResetWarning,0835.5,5.00,000.00,028.4,025.5,000.0,036.7,029.9,24.6,0000.0,0004.81,0009.82,0004.42
2023-07-23 23:34:00,SystemResetWarning,0835.5,5.00,000.00,028.4,026.0,000.0,036.8,030.0,25.0,0000.0,0004.80,0009.63,0004.42
2023-07-23 23:35:00,SystemResetWarning,0835.5,4.99,000.00,028.5,026.4,000.0,036.8,030.1,25.4,0000.0,0004.81,0009.39,0004.41
2023-07-23 23:36:00,SystemResetWarning,0835.5,5.01,000.00,028.5,026.8,000.0,036.8,030.2,25.3,0000.0,0004.84,0009.13,0004.40
2023-07-23 23:37:00,SystemResetWarning,0835.5,5.00,000.00,028.6,027.1,000.0,036.8,030.3,23.7,0000.0,0004.82,0008.98,0004.39
2023-07-23 23:38:00,SystemResetWarning,0835.5,4.98,000.00,028.6,027.4,000.0,036.9,030.4,22.2,0000.0,0004.78,0008.95,0004.36
2023-07-23 23:39:00,SystemResetWarning,0835.4,5.00,000.00,028.6,026.4,000.0,036.8,030.3,22.5,0000.0,0004.80,0009.28,0004.35
2023-07-23 23:40:00,SystemResetWarning,0835.3,5.01,000.00,028.6,025.5,000.0,036.7,030.1,22.9,0000.0,0004.77,0009.25,0004.33
2023-07-23 23:41:00,SystemResetWarning,0835.2,5.01,000.00,028.6,025.6,000.0,036.7,030.0,20.5,0000.0,0004.71,0009.04,0004.31
2023-07-23 23:42:00,SystemResetWarning,0835.3,5.00,000.00,028.5,025.9,000.0,036.8,030.0,19.5,0000.0,0004.69,0008.77,0004.30
2023-07-23 23:43:00,SystemResetWarning,0835.2,5.00,000.00,028.5,026.3,000.0,036.8,030.1,19.5,0000.0,0004.67,0008.65,0004.29
2023-07-23 23:44:00,SystemResetWarning,0835.2,5.00,000.00,028.6,026.7,000.0,036.8,030.2,19.4,0000.0,0004.66,0008.65,0004.29
2023-07-23 23:45:00,SystemResetWarning,0835.2,5.01,000.00,028.6,027.0,000.0,036.9,030.3,19.6,0000.0,0004.66,0008.62,0004.29
2023-07-23 23:46:00,SystemResetWarning,0835.2,5.00,000.00,028.7,027.3,000.0,036.9,030.4,19.4,0000.0,0004.65,0008.56,0004.28
2023-07-23 23:47:00,SystemResetWarning,0835.2,4.98,000.00,028.7,026.4,000.0,036.8,030.3,19.7,0000.0,0004.59,0007.56,0004.27
2023-07-23 23:48:00,SystemResetWarning,0835.1,5.01,000.00,028.6,024.8,000.0,036.7,030.1,19.3,0000.0,0004.59,0007.57,0004.27
2023-07-23 23:49:00,SystemResetWarning,0835.1,5.01,000.00,028.6,024.7,000.0,036.7,030.0,19.5,0000.0,0004.62,0007.80,0004.27
2023-07-23 23:50:00,SystemResetWarning,0835.1,5.00,000.00,028.5,025.1,000.0,036.7,029.9,19.6,0000.0,0004.60,0007.51,0004.27
2023-07-23 23:51:00,SystemResetWarning,0835.2,4.99,000.00,028.5,025.5,000.0,036.8,029.9,22.1,0000.0,0004.58,0007.75,0004.26
2023-07-23 23:52:00,SystemResetWarning,0835.2,5.00,000.00,028.5,026.0,000.0,036.8,030.0,24.5,0000.0,0004.63,0007.92,0004.27
2023-07-23 23:53:00,SystemResetWarning,0835.1,5.00,000.00,028.5,026.4,000.0,036.8,030.1,24.9,0000.0,0004.70,0008.12,0004.29
2023-07-23 23:54:00,SystemResetWarning,0835.1,5.00,000.00,028.6,026.8,000.0,036.8,030.2,25.6,0000.0,0004.77,0008.39,0004.31
2023-07-23 23:55:00,SystemResetWarning,0835.2,4.99,000.00,028.6,027.1,000.0,036.9,030.3,25.9,0000.0,0004.80,0008.40,0004.32
2023-07-23 23:56:00,SystemResetWarning,0835.1,5.00,000.00,028.6,027.4,000.0,036.9,030.4,25.8,0000.0,0004.77,0008.36,0004.31
2023-07-23 23:57:00,SystemResetWarning,0835.1,4.99,000.00,028.7,027.4,000.0,036.9,030.5,25.2,0000.0,0004.75,0008.35,0004.30
2023-07-23 23:58:00,SystemResetWarning,0835.1,4.99,000.00,028.7,025.9,000.0,036.8,030.2,24.7,0000.0,0004.73,0008.31,0004.28
2023-07-23 23:59:00,SystemResetWarning,0835.1,5.01,000.00,028.6,024.7,000.0,036.7,030.0,25.5,0000.0,0004.68,0008.20,0004.26
